Simultaneous Nadir Overpasses (SNOs) Predictions

Prediction of SNOs between GOES-16 and LANDSAT-8 Satellite Orbit:

Table of predicted SNOs for the next 14.0 days since TLE Epoch: 1/23/2022
Index Date Time (GOES-16) GOES-16 Lat,Lon LANDSAT-8 Lat,Lon Distance(km) Time Diff (sec)
1 01/23/2022 15:15:26 0.01, -75.21 0.03, -75.38 19.53 80
2 01/25/2022 15:00:33 0.01, -75.22 -0.56, -72.41 318.44 80
3 01/26/2022 03:24:37 -0.02, -75.20 -0.54, -77.61 273.98 80
4 01/28/2022 03:09:45 -0.01, -75.21 0.11, -74.65 63.79 80
5 01/30/2022 02:57:33 -0.00, -75.23 0.77, -71.70 401.86 80
6 01/30/2022 15:21:28 0.01, -75.26 0.35, -76.85 181.23 80
7 02/01/2022 15:06:35 0.02, -75.28 -0.26, -73.89 158.08 80
8 02/02/2022 03:30:38 -0.02, -75.26 -0.83, -79.08 433.63 80
9 02/03/2022 14:54:23 0.03, -75.31 -0.93, -70.93 498.44 80
10 02/04/2022 03:18:25 -0.03, -75.30 -0.22, -76.11 93.10 80
